Regional Weather Roundup
Issued by NWS San Angelo, TX

Home | Current Version | Previous Version | Text Only | Print | Product List | Glossary On
Versions: 1 2 3 4 5 6 7 8 9 10 11 12 13 14 15 16 17 18 19 20 21 22 23 24 25 26 27 28 29 30 31 32 33 34 35 36 37 38 39 40 41 42 43 44 45 46 47 48 49 50
000
ASUS44 KSJT 300311
RWRSJT
WEST CENTRAL TEXAS REGIONAL WEATHER ROUNDUP
NATIONAL WEATHER SERVICE SAN ANGELO TX
1000 PM CDT FRI JUL 29 2016

NOTE: "FAIR" INDICATES FEW OR NO CLOUDS BELOW 12,000 FEET WITH NO
SIGNIFICANT WEATHER AND/OR OBSTRUCTIONS TO VISIBILITY.

TXZ049-054-064>066-071>073-076>078-098-099-113-114-127-128-139-140-
154-155-168>170-300400
...LOCATIONS ACROSS WEST CENTRAL TEXAS...

CITY           SKY/WX    TMP DP  RH WIND       PRES   REMARKS
SAN ANGELO     CLEAR     85  62  46 S6        29.97R
ABILENE        CLEAR     81  66  60 S7        29.97R
DYESS AFB      CLEAR     83  67  57 SE8       29.96R
JUNCTION       CLEAR     85  62  46 S6        29.98R
SWEETWATER     CLEAR     83  63  49 SE8       30.02R
BROWNWOOD      PTCLDY    82  64  54 E5        29.96R
COLEMAN        CLEAR     82  66  58 CALM      29.97R
SONORA         CLEAR     84  61  45 S5        30.04R
OZONA          FAIR      82  59  44 S7        30.03R
BRADY          NOT AVBL
$$

TEXAS PANHANDLE/OKLAHOMA PANHANDLE

CITY           SKY/WX    TMP DP  RH WIND       PRES   REMARKS
AMARILLO       CLOUDY    80  62  54 SE7       30.08R
BORGER         MOCLDY    75  61  61 W18G39    30.10R
CANADIAN       CLOUDY    79  65  63 SE7       29.99F
DALHART        RAIN      69  58  67 N12       30.21R
DUMAS          LGT RAIN  67  60  78 W18       30.13S
GUYMON         NOT AVBL
HEREFORD       MOCLDY   N/A N/A N/A S10G17    30.06S
PAMPA          CLOUDY    78  64  62 SE9       30.05S
PERRYTON       MOCLDY    78  65  65 E8        30.03S
$$

SOUTHERN PANHANDLE/SOUTH PLAINS/ROLLING PLAINS

CITY           SKY/WX    TMP DP  RH WIND       PRES   REMARKS
LUBBOCK        MOCLDY    87  57  35 S7        30.04R
SNYDER           N/A     85  62  45 SE6       30.00R
CHILDRESS      CLEAR     86  60  41 SE7       29.97R
SEMINOLE       CLEAR     82  55  40 SE3       30.05R
$$

PERMIAN BASIN

CITY           SKY/WX    TMP DP  RH WIND       PRES   REMARKS
MIDLAND        CLEAR     87  58  37 SE9       30.01R
ODESSA         CLEAR     87  58  37 S10       30.02R
WINK           CLEAR     87  58  37 SE12      29.97R
$$

FAR WEST/SOUTHWEST MOUNTAINS/TRANS PECOS

CITY           SKY/WX    TMP DP  RH WIND       PRES   REMARKS
ALPINE         MOCLDY    73  56  55 S6        30.16S
DRYDEN           N/A     84  65  52 SE9       29.97R
EL PASO        MOCLDY    88  56  33 SE20      29.99R
FORT STOCKTON  CLEAR     82  60  47 S13G23    30.01R
GUADALUPE PASS CLEAR     76  56  49 SE6       30.17R
MARFA          CLOUDY    69  60  73 E7        30.15R
PECOS          CLEAR     87  58  37 SE14      29.96R
$$

DALLAS/FORT WORTH METROPLEX

CITY           SKY/WX    TMP DP  RH WIND       PRES   REMARKS
DFW AIRPORT    PTCLDY    88  68  51 S9        29.91R
FTW MEACHAM    CLEAR     88  68  51 S9        29.91R
DAL-EXECUTIVE  CLEAR     86  68  54 S6        29.92R
GRAND PRAIRIE  CLEAR     87  69  55 S3        29.93R
ADDISON        CLEAR     90  68  48 S5        29.93R
MESQUITE       CLEAR     82  74  78 SE7       29.93R
LANCASTER      CLEAR     84  73  69 SE3       29.94R
$$

NORTH CENTRAL TEXAS

CITY           SKY/WX    TMP DP  RH WIND       PRES   REMARKS
SHRMAN/DENISON CLEAR     85  73  67 S6        29.95R
GAINESVILLE    PTCLDY    83  71  68 CALM      29.96R
BRIDGEPORT     CLEAR     79  74  84 CALM      29.94R
DENTON         CLEAR     84  73  69 SE5       29.91R
WAXAHACHIE     CLEAR     81  72  72 CALM      29.94R
GRANBURY       CLEAR     86  68  56 S3        29.94R
$$

WESTERN NORTH TEXAS

CITY           SKY/WX    TMP DP  RH WIND       PRES   REMARKS
WICHITA FALLS  CLEAR     84  70  62 S9        29.92R
VERNON         CLEAR     89  57  34 CALM      29.95R
BRECKENRIDGE   CLEAR     83  69  62 SE8       29.94R
COMANCHE       CLEAR     82  67  61 S5        29.97R
$$

CENTRAL AND SOUTH CENTRAL TEXAS

CITY           SKY/WX    TMP DP  RH WIND       PRES   REMARKS
AUSTIN/BERGSTM PTCLDY    82  72  71 S6        29.95R
WACO           CLEAR     83  71  67 SE5       29.93R
HILLSBORO      CLEAR     80  69  67 SE5       29.94R
TEMPLE         CLEAR     85  69  58 S8        29.95R
KILLEEN-GRAY   CLEAR     83  66  55 S6        29.95R
FORT HOOD      CLEAR     86  66  51 S7        29.93R
GEORGETOWN     CLEAR     86  68  54 S6        29.95R
LAGO VISTA     FAIR      85  68  57 SE6       29.99R
SAN MARCOS     CLEAR     81  70  69 S8        29.98R
NEW BRAUNFELS  MOCLDY    79  70  74 S8        29.94R
RANDOLPH AFB   MOCLDY    79  72  78 SE7       29.96R
SAN ANTONIO    PTCLDY    82  68  62 SE8       29.97R
STINSON        PTCLDY    81  70  69 SE5       29.95R
PLEASANTON     NOT AVBL
LA GRANGE        N/A     84  74  72 S7        29.94R HAZE
GIDDINGS       CLEAR     83  71  67 S7        29.99R
$$

EAST TEXAS

CITY           SKY/WX    TMP DP  RH WIND       PRES   REMARKS
PARIS          CLEAR     82  66  57 SE9       29.95R
CLARKSVILLE    NOT AVBL
TYLER          CLEAR     82  73  74 S5        29.96R
LONGVIEW       CLEAR     81  74  79 S5        29.96R
PALESTINE      CLEAR     80  73  78 SE3       29.96R
NACOGDOCHES    PTCLDY   N/A N/A N/A CALM      29.95R
$$

TEXAS HILL COUNTRY AND EDWARDS PLATEAU

CITY           SKY/WX    TMP DP  RH WIND       PRES   REMARKS
LLANO          CLEAR     84  63  48 CALM      29.99R
HORSESHOE BAY  FAIR      82  67  58 S3        29.96S
KERRVILLE      CLEAR     81  69  66 SE7       30.00R
FREDERICKSBRG  CLEAR     82  64  54 CALM      30.01R
ROCKSPRINGS    CLEAR     81  63  54 CALM      30.05R
HONDO          CLEAR     81  70  69 SE8       29.98R
UVALDE         CLEAR     82  71  68 SE9       29.97R
DEL RIO        CLEAR     86  64  47 E7        29.91S
$$

SOUTHEAST TEXAS

CITY           SKY/WX    TMP DP  RH WIND       PRES   REMARKS
COLLEGE STN    CLEAR     86  74  67 S10       29.95R
CALDWELL       CLEAR     84  73  70 CALM      29.98R
CROCKETT       CLEAR     81  72  74 CALM      29.99R
BRENHAM        PTCLDY    84  73  69 S6        29.96R
HUNTSVILLE     CLEAR     82  74  76 VRB5      29.96R
CONROE         CLEAR     82  74  76 S8        29.96R
HOUSTON BUSH   PTCLDY    85  74  69 S8        29.95S
HOUSTON HOBBY  PTCLDY    82  76  81 SE5       29.95S
PERLAND        CLEAR     85  76  74 S5        29.97S
WHARTON        NOT AVBL
$$

THE UPPER TEXAS COAST

CITY           SKY/WX    TMP DP  RH WIND       PRES   REMARKS
ORANGE         CLEAR     82  74  78 S5        29.99R
PORT ARTHUR    CLEAR     79  75  87 MISG      29.97R
GALVESTON      CLEAR     85  77  77 S13       29.97F
ANGLETON       CLEAR     83  76  79 SE3       29.97R
BAY CITY       CLEAR     82  77  85 SE5       29.97R
$$

TEXAS COASTAL BEND, RIO GRANDE PLAINS DEEP SOUTH TEXAS

CITY           SKY/WX    TMP DP  RH WIND       PRES   REMARKS
VICTORIA       CLEAR     81  75  82 S8        29.96R
BEEVILLE       FAIR      79  76  91 SE6       29.96R
ROCKPORT       PTCLDY    85  75  72 SE13      29.95R
PORT ARANSAS   CLEAR     84  78  81 SE10G17   29.96R
PORT LAVACA    CLEAR     81  78  90 SE7       29.96R
CORPUS CHRISTI PTCLDY    84  77  79 SE13      29.96R
KINGSVILLE NAS CLEAR     83  79  88 SE12      29.95R
COTULLA        CLEAR     81  73  76 E8        29.94R
LAREDO         MOCLDY    81  73  76 W5        29.97R
BROWNSVILLE    CLEAR     83  76  79 SE9       29.96R
PORT ISABEL    CLEAR     85  76  74 SE13      29.95R
HEBBRONVILLE   CLEAR     83  72  70 SE12      29.98R
MCALLEN        CLEAR     87  72  60 SE14      29.95R
WESLACO        CLEAR     81  28  14 SE7       29.95R
FALFURRIAS     CLEAR     81  74  80 SE7       29.95R
EDINBURG       CLEAR     86  73  64 E8        29.95R
$$



USA.gov is the U.S. government's official web portal to all federal, state and local government web resources and services.